Location: Les Thiberg�res
(47.8554°N, 1.0978°W)
Time: 21:04:35
(UTC+00:00)

Daily predictions for brighter satellites

Satellite Brightness Start Highest point End
(mag) Time Altitude Azimuth Time Altitude Azimuth Time Altitude Azimuth
Cosmos 1844 Rocket 3.5 17:19:01 10° SSE 17:24:01 33° ESE 17:29:01 10° NE
Cosmos 2227 Rocket 4.4 17:20:35 10° WNW 17:24:14 17° NW 17:27:55 10° N
NOAA 12 4.2 17:23:17 10° SSE 17:28:31 87° WSW 17:33:48 10° NNW
Cosmos 2279 Rocket 4.0 17:24:02 10° N 17:30:21 77° E 17:36:36 10° SSE
USA 229 DEB 4.5 17:26:59 10° NW 17:33:31 36° NNE 17:40:23 10° E
USA 229 4.5 17:27:07 10° NW 17:33:36 36° NNE 17:40:27 10° E
CZ-4B R/B 2.4 17:32:36 10° NE 17:35:28 26° E 17:38:16 10° SSE
Cosmos 1939 Rocket 3.0 17:35:55 10° SSE 17:39:54 52° ENE 17:43:53 10° N
Aureole 3 3.8 17:38:19 10° NNE 17:41:10 25° ENE 17:43:46 10° SE
Cosmos 1315 Rocket 4.0 17:37:36 10° NNW 17:41:27 47° W 17:45:19 10° S
Okean O Rocket 1.8 17:40:15 10° SSE 17:44:42 81° WSW 17:49:09 10° NNW
CZ-4B R/B 3.6 17:39:18 10° S 17:44:51 75° WSW 17:50:32 10° NNW
Cosmos 2228 3.8 17:41:19 10° NNW 17:45:31 56° W 17:49:43 10° S
TELKOM 3 2.8 17:44:00 10° WSW 17:46:16 73° SSE 17:48:01 16° ENE
Cosmos 1606 Rocket 4.2 17:42:26 10° NNW 17:46:47 62° W 17:51:09 10° S
H-2A R/B 2.1 17:42:25 10° NNE 17:46:54 89° W 17:51:14 10° SSW
ATLAS 5 CENTAUR R/B 2.8 17:43:11 10° WSW 17:47:00 35° NW 17:51:21 10° NNE
Okean-O 3.5 17:43:44 10° ESE 17:47:26 27° ENE 17:51:09 10° N
NOSS 3-1 (A) 4.5 17:42:31 10° NW 17:49:05 38° NNE 17:56:43 10° E
Cosmos 44 4.5 17:45:52 10° SSE 17:49:44 25° ESE 17:53:00 13° ENE
X-37B 1.8 17:47:30 10° SW 17:50:25 33° SSE 17:52:52 13° E
Feng Yun 1-1 Rocket 4.2 17:45:05 10° SSE 17:50:26 61° ENE 17:55:56 10° N
SeaSat 1 4.2 17:46:48 10° N 17:50:58 28° NW 17:55:08 10° WSW
YAOGAN 1 3.5 17:47:25 10° ESE 17:51:03 27° ENE 17:54:41 10° N
Cosmos 1892 Rocket 3.5 17:47:24 10° S 17:51:44 81° E 17:56:05 10° NNE
Cosmos 158 Rocket 4.1 17:46:42 10° NNW 17:51:58 56° ENE 17:57:16 10° SE
Aureole 2 Rocket 2.0 17:50:01 10° SSW 17:53:02 68° ESE 17:56:07 10° NNE
ATLAS 2AS CENTAUR R/B 4.1 17:47:54 10° W 17:55:08 37° NNW 18:02:10 10° NE
MOS 1 Rocket 3.6 17:52:37 10° NNE 17:56:37 36° E 18:00:34 10° SSE
CZ-4 R/B 2.0 17:54:51 10° SE 17:58:31 34° ENE 18:02:09 10° N
Cosmos 489 Rocket 4.5 17:52:11 10° NNW 17:58:34 71° ENE 18:04:53 10° SSE
CZ-2D R/B 3.3 17:55:36 10° SSE 17:59:22 55° ENE 18:03:08 10° N
Meteor 1-21 Rocket 4.5 17:55:00 10° SSE 18:00:11 44° E 18:05:27 10° NNE
COSMOS 2455 2.9 17:54:17 10° SW 18:00:19 85° WNW 18:06:24 10° NNE
SJ 16-02 1.4 17:56:18 10° S 18:00:35 55° ESE 18:04:54 10° NNE
CZ-3B R/B 1.9 18:00:17 10° NW 18:02:36 51° NNE 18:08:30 10° ESE
Cosmos 1812 Rocket 4.3 17:59:13 10° N 18:03:07 30° ENE 18:06:58 10° SE
SKYMED 2 3.6 18:03:48 10° NNE 18:08:07 61° E 18:12:25 10° S
Cosmos 923 Rocket 4.0 18:05:01 10° NNW 18:10:23 71° ENE 18:15:40 10° SSE
Cosmos 1455 2.1 18:07:10 10° N 18:10:59 70° E 18:14:48 10° SSE
Cosmos 1340 3.7 18:08:45 10° SSE 18:11:51 25° E 18:12:36 23° ENE
Aureole 1 4.0 18:10:57 10° NNW 18:13:59 88° ENE 18:17:08 10° SSE
ERS-2 2.6 18:11:59 16° NE 18:14:36 39° E 18:18:01 10° S
Cosmos 2263 Rocket 3.8 18:10:08 10° WSW 18:15:05 30° NW 18:20:03 10° NNE
Cosmos 1898 Rocket 4.1 18:10:39 10° SSE 18:15:22 34° ESE 18:18:36 18° NE
Cosmos 1092 Rocket 4.2 18:09:58 10° SSE 18:15:50 47° E 18:21:41 10° NNE
Iridium 4 Rocket 4.0 18:11:09 10° N 18:16:25 39° ENE 18:21:15 10° SSE
Cosmos 1680 Rocket 3.5 18:11:23 10° NNW 18:16:36 61° ENE 18:21:45 10° SE
Cosmos 1689 Rocket 3.3 18:17:18 23° ESE 18:17:18 23° ESE 18:19:05 10° SSE
USA 234 3.9 18:14:04 18° ENE 18:18:30 41° N 18:24:33 10° WNW
IRS-1C Rocket 4.0 18:13:27 10° SSE 18:18:41 77° ENE 18:23:57 10° NNW
Cosmos 2344 4.3 18:12:45 10° NW 18:21:31 59° NE 18:33:33 10° ESE
ARGOS 3.5 18:17:34 10° SE 18:22:32 40° ENE 18:27:33 10° N
H-2A R/B 2.0 18:19:17 10° SSE 18:24:09 55° ENE 18:29:11 10° N
Cosmos 2058 Rocket 4.1 18:20:46 10° NNW 18:25:09 51° W 18:29:31 10° S
Lacrosse 5 2.7 18:21:28 10° WNW 18:26:22 51° SW 18:31:14 10° SSE
Meteor 2-13 Rocket 4.4 18:20:32 10° S 18:26:38 86° E 18:32:50 10° N
Meteor 2-1 Rocket 4.2 18:21:40 10° NNW 18:27:15 84° W 18:32:45 10° S
Nadezhda 4 Rocket 4.0 18:23:40 10° S 18:29:55 87° W 18:36:09 10° N
CZ-2C R/B 3.6 18:29:46 25° ENE 18:30:56 27° E 18:35:39 10° SSE
ISS -3.8 18:30:33 10° WSW 18:33:57 77° NNW 18:34:48 47° NE
NOSS 2-1 (E) 3.6 18:31:10 10° S 18:34:09 35° SE 18:34:09 35° SE
Cosmos 1703 3.1 18:34:11 10° S 18:38:03 71° E 18:40:54 17° NNE
Cosmos 1818 3.8 18:34:15 10° SW 18:39:39 69° NW 18:43:39 19° NNE
CZ-2C R/B 3.5 18:35:08 10° S 18:40:29 69° WSW 18:46:09 10° NNW
COSMOS 2406 3.5 18:35:33 10° NNW 18:41:09 48° NE 18:44:00 27° ESE
CSL-04 Debris 4.1 18:36:16 10° SSE 18:41:32 58° ENE 18:46:49 10° N
Cosmos 1626 Rocket 3.5 18:37:38 10° S 18:42:02 87° W 18:46:30 10° N
Cosmos 1937 Rocket 3.8 18:40:45 10° S 18:45:47 46° ESE 18:47:28 34° ENE
Cosmos 1833 Rocket 2.9 18:42:37 10° NNW 18:48:03 46° NE 18:49:44 36° E
Helios 1A Rocket 2.8 18:46:03 10° SSE 18:50:12 81° ENE 18:54:23 10° NNW
SAR-Lupe-4 3.4 18:49:58 41° NNE 18:51:09 87° ESE 18:54:43 10° SSW
CREW DRAGON DEMO-1 DEB 4.4 18:49:12 10° W 18:51:46 29° SW 18:52:22 26° SSW
Cosmos 2112 Rocket 4.1 18:49:49 10° NNW 18:55:04 78° WSW 19:00:15 10° SSE
Cosmos 1844 4.0 18:49:52 10° SW 18:55:30 66° WNW 19:00:15 15° NNE
CZ-4C R/B 4.2 18:51:28 10° NW 18:55:51 21° N 18:59:07 15° NNE
COSMO-SKYMED 1 3.7 18:52:01 10° N 18:56:11 44° WNW 19:00:18 10° SW
Cosmos 2082 Rocket 2.9 18:51:35 10° NNW 18:56:35 33° NE 18:56:35 33° NE
USA 281 4.5 18:58:06 21° NE 18:58:06 21° NE 19:02:22 10° N
Cosmos 1758 Rocket 3.4 19:01:18 10° S 19:05:43 68° E 19:05:48 68° E
Cosmos 2026 Rocket 3.8 19:00:08 10° S 19:06:15 85° E 19:12:31 10° N
NOSS 3-1 (C) 4.1 18:59:05 10° NW 19:06:33 83° SW 19:15:14 10° SSE
Cosmos 1553 Rocket 4.0 19:00:19 10° N 19:06:43 63° ENE 19:13:00 10° SSE
CZ-4B R/B 3.9 19:04:57 10° NNW 19:07:33 21° WNW 19:10:07 10° WSW
Cosmos 1844 Rocket 3.6 19:02:20 10° SW 19:07:45 46° NW 19:12:25 14° NNE
Meteor 2-15 4.3 19:06:25 10° N 19:12:37 83° E 19:18:46 10° S
Cosmos 1328 4.2 19:09:25 10° SSW 19:13:22 63° W 19:14:45 38° NNW
Cosmos 990 Rocket 4.3 19:13:25 10° SSW 19:18:35 64° WNW 19:21:25 27° N
Cosmos-2242 3.5 19:17:00 10° N 19:20:14 51° NNW 19:20:14 51° NNW
NOSS 2-1 (C) 4.3 19:20:07 10° SW 19:22:18 36° WSW 19:22:18 36° WSW
Okean-O 4.1 19:19:40 10° SSW 19:23:46 37° W 19:27:55 10° NNW
Cosmos 2278 Rocket 2.5 19:19:01 10° S 19:23:28 48° SSE 19:23:28 48° SSE
USA 267 4.0 19:26:05 33° SSE 19:26:05 33° SSE 19:31:01 10° SSW
USA 229 DEB 3.9 19:17:56 10° NW 19:25:15 84° SW 19:29:22 31° SSE
USA 229 3.9 19:18:02 10° NW 19:25:21 85° SW 19:29:23 31° SSE
X-37B 2.9 19:23:40 10° WSW 19:25:09 24° WSW 19:25:09 24° WSW
YAOGAN 1 4.2 19:23:04 10° SSW 19:27:01 35° W 19:31:01 10° NNW
CSL-04 Rocket 4.0 19:23:40 10° S 19:29:02 65° WSW 19:34:32 10° NNW
S3M 3.9 19:24:10 10° N 19:29:53 64° ENE 19:29:53 64° ENE
Cosmos 44 3.8 19:25:49 10° SW 19:30:35 57° NW 19:31:28 50° N
Meteor 1-11 4.2 19:26:15 10° SSW 19:31:57 82° WNW 19:35:24 25° N
ATLAS 5 CENTAUR R/B 4.0 19:30:28 10° NW 19:33:07 15° N 19:33:43 15° N
CZ-4 R/B 3.7 19:30:16 10° SSW 19:33:36 24° W 19:36:54 10° NW
SL-08 RB Rocket 4.1 19:39:13 58° WNW 19:39:13 58° WNW 19:43:16 10° NNW
SJ 16-02 3.8 19:36:17 10° WSW 19:39:31 20° NW 19:42:21 12° N
NOSS 3-1 (A) 4.1 19:33:16 10° NW 19:40:47 81° SW 19:44:37 37° SSE
ATLAS 2AS CENTAUR R/B 4.3 19:42:18 10° NW 19:48:26 24° N 19:50:17 22° NNE
USA 234 3.4 20:01:24 60° N 20:01:24 60° N 20:07:22 10° NW
H-2A R/B 4.3 20:00:07 10° SW 20:03:57 22° W 20:07:53 10° NW
CZ-2C R/B 3.4 20:11:15 51° WNW 20:11:27 51° WNW 20:16:51 10° SW
Cosmos 1833 Rocket 4.2 20:26:51 10° NW 20:31:31 32° W 20:31:31 32° W
Cosmos 2082 Rocket 3.9 20:35:34 10° NW 20:38:28 29° NW 20:38:28 29° NW
CZ-4C R/B 4.5 20:41:27 10° NW 20:44:18 21° N 20:44:18 21° N
